Estación de Remehue INIA

Ultimos registro cada 15 minutos 32
Estación Fecha / Hora Temperatura Humedad Lluvia Velocidad Dirección Radiación Presion
32 Remehue INIA 10-05-2026 07:45 -0,5 98,7 0 0,2 29 0 1016
31 Remehue INIA 10-05-2026 07:30 -0,4 99,7 0 0 0 0 1015
30 Remehue INIA 10-05-2026 07:15 -0,2 98,9 0 0 0 0 1015
29 Remehue INIA 10-05-2026 07:00 -0,1 99 0 0,3 331 0 1016
28 Remehue INIA 10-05-2026 06:45 0 99,5 0 0 343 0 1016
27 Remehue INIA 10-05-2026 06:30 -0,2 99,6 0 0,2 302 0 1016
26 Remehue INIA 10-05-2026 06:15 -0,4 98,7 0 0,1 352 0 1016
25 Remehue INIA 10-05-2026 06:00 -0,2 99,3 0 0,1 13 0 1016
24 Remehue INIA 10-05-2026 05:45 -0,3 99,3 0 0 171 0 1016
23 Remehue INIA 10-05-2026 05:30 0,2 98,6 0 0,1 236 0 1015
22 Remehue INIA 10-05-2026 05:15 -0,1 99,5 0 0 323 0 1015
21 Remehue INIA 10-05-2026 05:00 0,5 98,9 0 0,3 245 0 1015
20 Remehue INIA 10-05-2026 04:45 0,6 99,2 0 0,1 291 0 1015
19 Remehue INIA 10-05-2026 04:30 0,4 98,9 0 0,2 322 0 1016
18 Remehue INIA 10-05-2026 04:15 -0,1 99,8 0 0 13 0 1016
17 Remehue INIA 10-05-2026 04:00 0,6 97,4 0 0 0 0 1015
16 Remehue INIA 10-05-2026 03:45 0,5 99,1 0 0 0 0 1016
15 Remehue INIA 10-05-2026 03:30 0,8 98,5 0 0 0 0 1016
14 Remehue INIA 10-05-2026 03:15 0,7 98,7 0 0 0 0 1016
13 Remehue INIA 10-05-2026 03:00 0,6 98,9 0 0 351 0 1016
12 Remehue INIA 10-05-2026 02:45 1,2 97,9 0 0 0 0 1016
11 Remehue INIA 10-05-2026 02:30 1 98,9 0 0 349 0 1016
10 Remehue INIA 10-05-2026 02:15 1,7 98,3 0 0 348 0 1016
9 Remehue INIA 10-05-2026 02:00 1,8 98,4 0 0 0 0 1016
8 Remehue INIA 10-05-2026 01:45 1,8 98,3 0 0 341 0 1016
7 Remehue INIA 10-05-2026 01:30 2 97,6 0 0 327 0 1016
6 Remehue INIA 10-05-2026 01:15 2,1 97,9 0 0 0 0 1016
5 Remehue INIA 10-05-2026 01:00 2,4 97,8 0 0 0 0 1016
4 Remehue INIA 10-05-2026 00:45 2,6 97,8 0 0 260 0 1016
3 Remehue INIA 10-05-2026 00:30 2,6 98,3 0 0 297 0 1017
2 Remehue INIA 10-05-2026 00:15 2,3 98 0 0 297 0 1017
1 Remehue INIA 10-05-2026 00:00 2,5 97,2 0 0 297 0 1017